This is the latest recevied weather packets stored in our database for station/object N6SPP. If no packets are shown the sender has not sent any weather packets the latest 10 day(s).
| Time | Temp. | Humidity | Pressure | Rain* | Wind** | Luminosity | Snow |
|---|---|---|---|---|---|---|---|
| 1778037150 | 15° C | 75% | 1018.1 hPa | 0 mm | - | 1 W/m² | - |
| 1778036848 | 15° C | 75% | 1018.1 hPa | 0 mm | - | 1 W/m² | - |
| 1778036545 | 15° C | 75% | 1018.2 hPa | 0 mm | - | 2 W/m² | - |
| 1778036242 | 15° C | 75% | 1018.2 hPa | 0 mm | - | 3 W/m² | - |
| 1778035938 | 15° C | 75% | 1017.9 hPa | 0 mm | - | 5 W/m² | - |
| 1778035635 | 15.56° C | 75% | 1017.9 hPa | 0 mm | - | 7 W/m² | - |
| 1778035332 | 15.56° C | 75% | 1018 hPa | 0 mm | - | 9 W/m² | - |
| 1778035028 | 15.56° C | 75% | 1017.7 hPa | 0 mm | - | 11 W/m² | - |
| 1778034726 | 15.56° C | 75% | 1017.9 hPa | 0 mm | - | 13 W/m² | - |
| 1778034422 | 15.56° C | 75% | 1017.6 hPa | 0 mm | - | 15 W/m² | - |
| 1778034120 | 15.56° C | 75% | 1017.5 hPa | 0 mm | - | 18 W/m² | - |
| 1778033818 | 16.11° C | 75% | 1017.5 hPa | 0 mm | - | 21 W/m² | - |
| 1778033515 | 16.11° C | 75% | 1017.8 hPa | 0 mm | - | 24 W/m² | - |
| 1778033211 | 16.11° C | 75% | 1017.5 hPa | 0 mm | - | 28 W/m² | - |
| 1778032909 | 16.11° C | 74% | 1017.5 hPa | 0 mm | - | 31 W/m² | - |
| 1778032607 | 16.11° C | 74% | 1017.6 hPa | 0 mm | - | 31 W/m² | - |
| 1778032303 | 16.67° C | 74% | 1017.4 hPa | 0 mm | - | 34 W/m² | - |
| 1778031996 | 16.67° C | 74% | 1017.6 hPa | 0 mm | - | 47 W/m² | - |
| 1778031691 | 16.67° C | 73% | 1017.5 hPa | 0 mm | - | 53 W/m² | - |
| 1778031389 | 16.67° C | 73% | 1017.4 hPa | 0 mm | - | 62 W/m² | - |
| 1778031086 | 16.67° C | 73% | 1017.5 hPa | 0 mm | - | 74 W/m² | - |
| 1778030781 | 17.22° C | 73% | 1017.3 hPa | 0 mm | - | 89 W/m² | - |
| 1778030478 | 17.22° C | 73% | 1017.4 hPa | 0 mm | - | 101 W/m² | - |
| 1778030176 | 17.22° C | 72% | 1017.2 hPa | 0 mm | - | 110 W/m² | - |
| 1778029872 | 17.22° C | 72% | 1017.4 hPa | 0 mm | - | 117 W/m² | - |
* Rain latest hour (hover to see other rain measurements)
** Current wind speed in m/s (hover to see current wind gust speed)